User: anonymous   Login
Location: Unspecified
(0.0000°N, 0.0000°E)
Time: 19:17:31
(UTC+00:00)
Language:

SATHYABAMASAT - Orbit

View from above orbital plane
View from above orbital plane
View from above satellite
View from above satellite

Ground track
Ground track

The orbit data is extracted from the following two-line orbital elements,

1 41600U 16040B   18201.83503997  .00001479  00000-0  66776-4 0  9995
2 41600  97.4141 264.6608 0015843 118.3921 241.8914 15.22445182115300
Epoch (UTC): 20 July 2018 20:02:27
Eccentricity: 0.0015843
inclination: 97.4141°
perigee height: 487 km
apogee height: 509 km
right ascension of ascending node: 264.6608°
argument of perigee: 118.3921°
revolutions per day: 15.22445182
mean anomaly at epoch: 241.8914°
orbit number at epoch: 11530

The dashed part of the orbit path shows where the satellite is in the earth's shadow,  

DLR